KANOPUS-V 5

导读

KANOPUS-V 5是独联体(CIS)发射的遥感观测卫星,于莫斯科时间2018年12月27日8时成功入轨,属于KANOPUS-V系列遥感卫星组网卫星,配备高分辨率光学成像设备,主要用于地球资源观测、灾害监测、环境监测,可为农业、水利、应急管理提供精准遥感数据支撑,助力独联体地区对地观测体系建设。

基本信息
目录编号:
43876
目录名称:
KANOPUS-V 5
国际标识:
2018-111A
轨道中心:
EARTH
卫星名称:
KANOPUS-V 5
卫星全名:
--
卫星状态:
在轨 (已飞行2809 天)
发射日期:
2018-12-27 UTC
国别 :
俄罗斯(独联体) (CIS)
星等 :
--
轨道信息
数据来源 国际轨道数据
星历时间: 2026-09-05T00:56:44+0800
1天前
查看轨道信息
半长轴: 6876.944km
偏心率: 0.0001808
轨道倾角: 97.349°
近地点辐角 85.588°
升交点赤经 151.539°
平近点角 274.557°
近地点: 497.563km
远地点: 500.051km
周期: 94.592分钟
每日圈数: 15.223326
详细信息
使用方式:
暂无
2D轨道图
3D轨道图
轨道高度分析图
轨道倾角分析图
轨道综合分析图
查看轨道综合分析图
交会数据列表
事件ID 空间交会对象 最接近时刻(TCA) 交会距离 交会风险概率(CRP) 交会风险指数(CRI) 操作
CDM_260908-052604-387606-267121
2026-09-08T
05:26:56+0000
1.171 km
极远距离
1.585692E-5 中风险 0.59
CDM_260906-210803-507104-387623
2026-09-06T
21:08:38+0000
2.189 km
极远距离
2.337861E-6 低风险 0.42
CDM_260907-160604-387606-673122
2026-09-07T
16:06:13+0000
2.451 km
极远距离
1.837809E-6 低风险 0.4